User: anonymous   Login
Location: Newark
(45.9456°N, 15.4064°E)
Time: 13:41:03
(UTC+00:00)
Language:

Transit 2A Rocket - Orbit

View from above orbital plane
View from above orbital plane
View from above satellite
View from above satellite

Ground track
Ground track

The orbit data is extracted from the following two-line orbital elements,

1    47U 60007C   21017.16916385 -.00000025  00000-0  19365-4 0  9990
2    47  66.6669 303.5201 0223659 148.5457 212.9250 14.42126139165946
Epoch (UTC): 17 January 2021 04:03:35
Eccentricity: 0.0223659
inclination: 66.6669°
perigee height: 592 km
apogee height: 911 km
right ascension of ascending node: 303.5201°
argument of perigee: 148.5457°
revolutions per day: 14.42126139
mean anomaly at epoch: 212.9250°
orbit number at epoch: 16594

The dashed part of the orbit path shows where the satellite is in the earth's shadow,  

DLR